| time (UTC) | temp F | wind direction | speed MPH | gust MPH | rain 1hr in | rain 24hr in | rain mn in | humidity % | barometer mb |
| 20260506044824 | 70 | 280 | 3.0 | 6.0 | 0.00 | 0.00 | 0.00 | 59 | 1010.9 |
| 20260506043816 | 70 | 195 | 3.0 | 7.0 | 0.00 | 0.00 | 0.00 | 58 | 1010.9 |
| 20260506042848 | 70 | 179 | 4.0 | 7.0 | 0.00 | 0.00 | 0.00 | 57 | 1010.9 |
| 20260506041817 | 70 | 184 | 3.0 | 6.0 | 0.00 | 0.00 | 0.00 | 56 | 1010.9 |
| 20260506040828 | 70 | 202 | 3.0 | 6.0 | 0.00 | 0.00 | 0.00 | 55 | 1010.8 |
| 20260506035849 | 70 | 186 | 3.0 | 7.0 | 0.00 | 0.00 | 0.00 | 54 | 1010.8 |
| 20260506034820 | 70 | 181 | 4.0 | 5.0 | 0.00 | 0.00 | 0.00 | 54 | 1010.9 |
| 20260506033831 | 70 | 189 | 2.0 | 5.0 | 0.00 | 0.00 | 0.00 | 53 | 1010.8 |
| 20260506032823 | 70 | 204 | 3.0 | 5.0 | 0.00 | 0.00 | 0.00 | 52 | 1010.8 |
| 20260506031816 | 70 | 162 | 3.0 | 6.0 | 0.00 | 0.00 | 0.00 | 52 | 1010.8 |
| 20260506030828 | 70 | 199 | 2.0 | 4.0 | 0.00 | 0.00 | 0.00 | 51 | 1010.8 |
| 20260506025813 | 70 | 189 | 3.0 | 5.0 | 0.00 | 0.00 | 0.00 | 50 | 1010.8 |
| 20260506024847 | 71 | 180 | 3.0 | 5.0 | 0.00 | 0.00 | 0.00 | 49 | 1010.8 |
| 20260506023816 | 71 | 180 | 3.0 | 4.0 | 0.00 | 0.00 | 0.00 | 48 | 1010.9 |
| 20260506022848 | 71 | 175 | 3.0 | 5.0 | 0.00 | 0.00 | 0.00 | 47 | 1010.9 |
| 20260506021818 | 71 | 182 | 3.0 | 5.0 | 0.00 | 0.00 | 0.00 | 46 | 1010.9 |
| 20260506020830 | 71 | 182 | 3.0 | 5.0 | 0.00 | 0.00 | 0.00 | 46 | 1010.9 |
| 20260506015817 | 72 | 180 | 2.0 | 4.0 | 0.00 | 0.00 | 0.00 | 45 | 1010.9 |
| 20260506014829 | 72 | 191 | 3.0 | 4.0 | 0.00 | 0.00 | 0.00 | 44 | 1010.8 |
| 20260506013823 | 72 | 196 | 2.0 | 4.0 | 0.00 | 0.00 | 0.00 | 43 | 1010.8 |
| 20260506012816 | 73 | 197 | 2.0 | 4.0 | 0.00 | 0.00 | 0.00 | 42 | 1010.7 |
| 20260506011830 | 73 | 200 | 2.0 | 4.0 | 0.00 | 0.00 | 0.00 | 41 | 1010.6 |
| 20260506010813 | 73 | 205 | 2.0 | 4.0 | 0.00 | 0.00 | 0.00 | 41 | 1010.3 |
| 20260506005829 | 74 | 174 | 3.0 | 6.0 | 0.00 | 0.00 | 0.00 | 40 | 1010.2 |
| 20260506004814 | 74 | 198 | 3.0 | 5.0 | 0.00 | 0.00 | 0.00 | 39 | 1010.1 |
| 20260506003857 | 75 | 188 | 2.0 | 7.0 | 0.00 | 0.00 | 0.00 | 38 | 1010.0 |
| 20260506002818 | 75 | 184 | 3.0 | 6.0 | 0.00 | 0.00 | 0.00 | 38 | 1009.9 |
| 20260506001828 | 75 | 245 | 4.0 | 6.0 | 0.00 | 0.00 | 0.00 | 38 | 1009.9 |
| 20260506000819 | 75 | 222 | 4.0 | 8.0 | 0.00 | 0.00 | 0.00 | 39 | 1009.8 |
| 20260505235824 | 75 | 192 | 4.0 | 9.0 | 0.00 | 0.00 | 0.00 | 39 | 1009.7 |
| 20260505234818 | 76 | 198 | 3.0 | 6.0 | 0.00 | 0.00 | 0.00 | 40 | 1009.7 |
| 20260505233831 | 76 | 311 | 3.0 | 6.0 | 0.00 | 0.00 | 0.00 | 39 | 1009.5 |
| 20260505232824 | 76 | 163 | 3.0 | 7.0 | 0.00 | 0.00 | 0.00 | 39 | 1009.5 |
| 20260505231816 | 76 | 213 | 2.0 | 6.0 | 0.00 | 0.00 | 0.00 | 40 | 1009.5 |
| 20260505230829 | 76 | 168 | 3.0 | 5.0 | 0.00 | 0.00 | 0.00 | 40 | 1009.5 |
| 20260505225816 | 77 | 198 | 3.0 | 9.0 | 0.00 | 0.00 | 0.00 | 39 | 1009.5 |
| 20260505224834 | 77 | 186 | 5.0 | 9.0 | 0.00 | 0.00 | 0.00 | 39 | 1009.5 |
| 20260505223832 | 78 | 212 | 2.0 | 6.0 | 0.00 | 0.00 | 0.00 | 39 | 1009.6 |
| 20260505222831 | 78 | 198 | 3.0 | 10.0 | 0.00 | 0.00 | 0.00 | 38 | 1009.6 |
| 20260505221820 | 79 | 200 | 4.0 | 10.0 | 0.00 | 0.00 | 0.00 | 38 | 1009.5 |
| 20260505220813 | 80 | 215 | 4.0 | 11.0 | 0.00 | 0.00 | 0.00 | 36 | 1009.5 |
| 20260505215818 | 80 | 171 | 5.0 | 10.0 | 0.00 | 0.00 | 0.00 | 36 | 1009.4 |
| 20260505214859 | 80 | 175 | 5.0 | 12.0 | 0.00 | 0.00 | 0.00 | 36 | 1009.3 |
| 20260505213821 | 81 | 237 | 5.0 | 12.0 | 0.00 | 0.00 | 0.00 | 37 | 1009.5 |
| 20260505212814 | 81 | 188 | 5.0 | 11.0 | 0.00 | 0.00 | 0.00 | 37 | 1009.3 |
| 20260505211823 | 80 | 202 | 5.0 | 10.0 | 0.00 | 0.00 | 0.00 | 36 | 1009.2 |
| 20260505210814 | 80 | 190 | 4.0 | 14.0 | 0.00 | 0.00 | 0.00 | 36 | 1009.3 |
| 20260505205850 | 81 | 211 | 4.0 | 11.0 | 0.00 | 0.00 | 0.00 | 37 | 1009.2 |
| 20260505204813 | 81 | 198 | 4.0 | 10.0 | 0.00 | 0.00 | 0.00 | 38 | 1009.3 |
| 20260505203828 | 81 | 188 | 5.0 | 10.0 | 0.00 | 0.00 | 0.00 | 39 | 1009.3 |
| 20260505202820 | 80 | 184 | 5.0 | 10.0 | 0.00 | 0.00 | 0.00 | 37 | 1009.1 |
| 20260505201827 | 81 | 248 | 4.0 | 9.0 | 0.00 | 0.00 | 0.00 | 38 | 1009.3 |
| 20260505200821 | 80 | 277 | 4.0 | 10.0 | 0.00 | 0.00 | 0.00 | 39 | 1009.5 |
| 20260505195826 | 80 | 237 | 5.0 | 11.0 | 0.00 | 0.00 | 0.00 | 37 | 1009.4 |
| 20260505194821 | 81 | 191 | 6.0 | 9.0 | 0.00 | 0.00 | 0.00 | 38 | 1009.5 |
| 20260505193832 | 81 | 168 | 4.0 | 14.0 | 0.00 | 0.00 | 0.00 | 41 | 1009.6 |
| 20260505192825 | 80 | 251 | 6.0 | 11.0 | 0.00 | 0.00 | 0.00 | 39 | 1009.7 |
| 20260505191837 | 80 | 210 | 5.0 | 10.0 | 0.00 | 0.00 | 0.00 | 40 | 1009.9 |
| 20260505190820 | 81 | 161 | 4.0 | 11.0 | 0.00 | 0.00 | 0.00 | 41 | 1010.1 |
| 20260505185833 | 80 | 198 | 5.0 | 14.0 | 0.00 | 0.00 | 0.00 | 40 | 1010.2 |
| 20260505184846 | 81 | 122 | 4.0 | 11.0 | 0.00 | 0.00 | 0.00 | 38 | 1010.3 |
| 20260505183836 | 81 | 185 | 4.0 | 10.0 | 0.00 | 0.00 | 0.00 | 41 | 1010.3 |
| 20260505182818 | 80 | 188 | 1.0 | 7.0 | 0.00 | 0.00 | 0.00 | 44 | 1010.4 |
| 20260505181840 | 80 | 200 | 3.0 | 7.0 | 0.00 | 0.00 | 0.00 | 42 | 1010.4 |
| 20260505180822 | 79 | 191 | 5.0 | 11.0 | 0.00 | 0.00 | 0.00 | 42 | 1010.7 |
| 20260505175835 | 80 | 198 | 4.0 | 9.0 | 0.00 | 0.00 | 0.00 | 40 | 1010.8 |
| 20260505174819 | 80 | 163 | 4.0 | 10.0 | 0.00 | 0.00 | 0.00 | 42 | 1010.9 |
| 20260505173832 | 79 | 161 | 5.0 | 12.0 | 0.00 | 0.00 | 0.00 | 43 | 1010.9 |
| 20260505172826 | 79 | 192 | 6.0 | 10.0 | 0.00 | 0.00 | 0.00 | 41 | 1011.0 |
| 20260505171840 | 79 | 169 | 4.0 | 12.0 | 0.00 | 0.00 | 0.00 | 41 | 1011.1 |
| 20260505170813 | 79 | 145 | 5.0 | 9.0 | 0.00 | 0.00 | 0.00 | 43 | 1011.1 |
| 20260505165820 | 78 | 152 | 5.0 | 10.0 | 0.00 | 0.00 | 0.00 | 44 | 1011.3 |
| 20260505164817 | 78 | 9 | 4.0 | 9.0 | 0.00 | 0.00 | 0.00 | 42 | 1011.5 |
| 20260505163849 | 78 | 175 | 3.0 | 8.0 | 0.00 | 0.00 | 0.00 | 47 | 1011.6 |
| 20260505162824 | 78 | 197 | 6.0 | 8.0 | 0.00 | 0.00 | 0.00 | 44 | 1011.6 |
| 20260505161818 | 78 | 188 | 4.0 | 8.0 | 0.00 | 0.00 | 0.00 | 47 | 1011.7 |
| 20260505160835 | 78 | 186 | 4.0 | 8.0 | 0.00 | 0.00 | 0.00 | 48 | 1011.6 |
| 20260505152838 | 76 | 92 | 3.0 | 14.0 | 0.00 | 0.00 | 0.00 | 51 | 1011.8 |
| 20260505151820 | 75 | 18 | 4.0 | 9.0 | 0.00 | 0.00 | 0.00 | 53 | 1011.8 |
| 20260505150832 | 74 | 188 | 2.0 | 6.0 | 0.00 | 0.00 | 0.00 | 54 | 1011.9 |
| 20260505124817 | 62 | 205 | 3.0 | 6.0 | 0.00 | 0.00 | 0.00 | 69 | 1012.8 |
| 20260505123814 | 61 | 212 | 2.0 | 7.0 | 0.00 | 0.00 | 0.00 | 70 | 1012.9 |
| 20260505122832 | 61 | 240 | 0.0 | 8.0 | 0.00 | 0.00 | 0.00 | 71 | 1012.9 |
| 20260505121826 | 61 | 76 | 2.0 | 7.0 | 0.00 | 0.00 | 0.00 | 71 | 1012.8 |
| 20260505120820 | 60 | 220 | 1.0 | 3.0 | 0.00 | 0.00 | 0.00 | 72 | 1012.7 |
| 20260505115846 | 60 | 254 | 2.0 | 3.0 | 0.00 | 0.00 | 0.00 | 72 | 1012.5 |
| 20260505114823 | 59 | 159 | 0.0 | 3.0 | 0.00 | 0.00 | 0.00 | 73 | 1012.5 |
| 20260505113819 | 59 | 227 | 1.0 | 5.0 | 0.00 | 0.00 | 0.00 | 73 | 1012.4 |
| 20260505112835 | 59 | 11 | 1.0 | 4.0 | 0.00 | 0.00 | 0.00 | 74 | 1012.3 |
| 20260505111817 | 58 | 250 | 1.0 | 3.0 | 0.00 | 0.00 | 0.00 | 75 | 1012.2 |
| 20260505110828 | 58 | 51 | 1.0 | 3.0 | 0.00 | 0.00 | 0.00 | 76 | 1012.0 |
| 20260505101824 | 57 | 135 | 0.0 | 3.0 | 0.00 | 0.00 | 0.00 | 74 | 1011.4 |
| 20260505100816 | 57 | 180 | 1.0 | 2.0 | 0.00 | 0.00 | 0.00 | 74 | 1011.4 |
| 20260505095820 | 58 | 160 | 0.0 | 2.0 | 0.00 | 0.00 | 0.00 | 73 | 1011.3 |
| 20260505094832 | 58 | 160 | 0.0 | 8.0 | 0.00 | 0.00 | 0.00 | 73 | 1011.4 |
| 20260505093823 | 58 | 128 | 2.0 | 4.0 | 0.00 | 0.00 | 0.00 | 73 | 1011.3 |
| 20260505092834 | 58 | 150 | 0.0 | 2.0 | 0.00 | 0.00 | 0.00 | 73 | 1011.3 |
| 20260505091825 | 59 | 150 | 0.0 | 2.0 | 0.00 | 0.00 | 0.00 | 72 | 1011.3 |
| 20260505090817 | 59 | 196 | 0.0 | 3.0 | 0.00 | 0.00 | 0.00 | 71 | 1011.3 |
| 20260505085821 | 59 | 196 | 1.0 | 3.0 | 0.00 | 0.00 | 0.00 | 71 | 1011.2 |
| 20260505084832 | 60 | 184 | 0.0 | 3.0 | 0.00 | 0.00 | 0.00 | 70 | 1011.2 |
| 20260505083823 | 60 | 184 | 2.0 | 3.0 | 0.00 | 0.00 | 0.00 | 70 | 1011.2 |
| 20260505082815 | 60 | 183 | 2.0 | 4.0 | 0.00 | 0.00 | 0.00 | 70 | 1011.3 |
| 20260505081844 | 60 | 184 | 3.0 | 5.0 | 0.00 | 0.00 | 0.00 | 69 | 1011.1 |
| 20260505080814 | 60 | 182 | 3.0 | 4.0 | 0.00 | 0.00 | 0.00 | 69 | 1011.1 |
| 20260505075819 | 60 | 182 | 2.0 | 3.0 | 0.00 | 0.00 | 0.00 | 69 | 1011.1 |
| 20260505074830 | 60 | 182 | 2.0 | 4.0 | 0.00 | 0.00 | 0.00 | 69 | 1011.2 |
| 20260505073823 | 60 | 182 | 2.0 | 4.0 | 0.00 | 0.00 | 0.00 | 69 | 1011.1 |
| 20260505072832 | 60 | 205 | 0.0 | 2.0 | 0.00 | 0.00 | 0.00 | 69 | 1011.0 |
| 20260505071823 | 60 | 205 | 0.0 | 0.0 | 0.00 | 0.00 | 0.00 | 69 | 1010.9 |
| 20260505070816 | 61 | 205 | 0.0 | 0.0 | 0.00 | 0.00 | 0.00 | 69 | 1010.9 |
| 20260505065821 | 61 | 205 | 0.0 | 0.0 | 0.00 | 0.00 | 0.00 | 69 | 1010.9 |
| 20260505064814 | 61 | 205 | 0.0 | 0.0 | 0.00 | 0.00 | 0.00 | 68 | 1010.9 |
| 20260505063826 | 61 | 205 | 0.0 | 1.0 | 0.00 | 0.00 | 0.00 | 68 | 1011.0 |
| 20260505062839 | 61 | 205 | 0.0 | 1.0 | 0.00 | 0.00 | 0.00 | 69 | 1011.1 |
| 20260505061829 | 61 | 205 | 0.0 | 3.0 | 0.00 | 0.00 | 0.00 | 69 | 1011.2 |
| 20260505060841 | 61 | 204 | 0.0 | 2.0 | 0.00 | 0.00 | 0.00 | 67 | 1011.3 |
| 20260505055856 | 61 | 204 | 1.0 | 3.0 | 0.00 | 0.00 | 0.00 | 67 | 1011.3 |
| 20260505054817 | 62 | 196 | 1.0 | 2.0 | 0.00 | 0.00 | 0.00 | 66 | 1011.2 |
| 20260505053827 | 62 | 176 | 0.0 | 0.0 | 0.00 | 0.00 | 0.00 | 66 | 1011.2 |
| 20260505052818 | 61 | 178 | 0.0 | 0.0 | 0.00 | 0.00 | 0.00 | 66 | 1011.1 |
| 20260505051825 | 61 | 177 | 0.0 | 0.0 | 0.00 | 0.00 | 0.00 | 65 | 1011.1 |
| 20260505050817 | 61 | 175 | 0.0 | 0.0 | 0.00 | 0.00 | 0.00 | 65 | 1011.1 |